[Date Prev][Date Next][Thread Prev][Thread Next] - [Date Index][Thread Index][Author Index]
2 Line ISS Keps 7-30
- Subject: [sarex] 2 Line ISS Keps 7-30
- From: "Dave Larsen PhD" <doc@xxxxxxxxxxx>
- Date: Fri, 29 Jul 2005 19:40:10 -0700
ISS
1 25544U 98067A 05210.97079044 .00014203 00000-0 11048-3 0 277
2 25544 051.6451 041.8096 0002398 177.1047 345.6122 15.72051378382411
----
Via the sarex mailing list at AMSAT.ORG courtesy of AMSAT-NA.
To unsubscribe, send "unsubscribe sarex" to Majordomo@amsat.org
AMSAT Home